Regional Weather Roundup
Issued by NWS Northern Indiana

Home | Current Version | Previous Version | Graphics & Text | Print | Product List | Glossary On
Versions: 1 2 3 4 5 6 7 8 9 10 11 12 13 14 15 16 17 18 19 20 21 22 23 24 25 26 27 28 29 30 31 32 33 34 35 36 37 38 39 40 41 42 43 44 45 46 47 48 49 50
000
ASUS43 KIWX 280800
RWRIWX

KIWX WEATHER ROUNDUP
NATIONAL WEATHER SERVICE NORTHERN INDIANA
400 AM EDT FRI JUL 28 2017

NOTE: "FAIR" INDICATES FEW OR NO CLOUDS BELOW 12,000 FEET WITH NO
SIGNIFICANT WEATHER AND/OR OBSTRUCTIONS TO VISIBILITY.

* THESE STATIONS ARE NOT UNDER NWS QUALITY CONTROL. THEY ALSO MAY NOT
  REPORT WEATHER SUCH AS PRECIPITATION OR FOG.

INZ001>027-280900-
NORTHERN INDIANA

CITY           SKY/WX    TMP DP  RH WIND       PRES   REMARKS
MICHIGAN CITY* PTCLDY    68  64  88 NE3       29.92S
SOUTH BEND     CLOUDY    72  64  76 NE8       29.92R
GOSHEN         PTCLDY    69  61  75 NE8       29.91S
MONTICELLO*    CLOUDY    70  68  95 NE5       29.88R
FORT WAYNE     CLOUDY    70  66  87 NE13      29.90S
PERU/GRISSOM   MOCLDY    72  72 100 NE7       29.87S FOG

$$
INZ028>050-280900-
CENTRAL INDIANA

CITY           SKY/WX    TMP DP  RH WIND       PRES   REMARKS
LAFAYETTE      PTCLDY    68  67  96 CALM      29.86F
KOKOMO*        CLOUDY    72  70  93 E6        29.89S FOG
MUNCIE*        CLOUDY    73  70  90 E6        29.87S FOG
INDIANAPOLIS   CLOUDY    74  72  93 N7        29.84S FOG

$$
MIZ043>046-050>051-056>058-064>065-071>073-077>080-280900-
SOUTHWEST LOWER MICHIGAN

CITY           SKY/WX    TMP DP  RH WIND       PRES   REMARKS
BATTLE CREEK   MOCLDY    65  61  87 NE7       29.96S
BENTON HARBOR  MOCLDY    68  60  75 NE8       29.93S
COLDWATER*     CLOUDY    68  62  81 NE8       29.94R
HILLSDALE*     MOCLDY    64  59  82 NE7       29.94R
HOLLAND        MOCLDY    68  58  70 E7        29.97R
GRAND RAPIDS   MOCLDY    65  60  84 NE7       29.97S
KALAMAZOO      PTCLDY    67  59  75 NE7       29.96R
STURGIS*       CLOUDY    69  63  80 NE8       29.92S
THREE RIVERS*  CLOUDY    69  62  78 NE6       29.94R

$$
OHZ001>008-015>018-024>025-280900-
NORTHWEST OHIO

CITY           SKY/WX    TMP DP  RH WIND       PRES   REMARKS
DEFIANCE       PTCLDY    66  60  81 NE7       29.91S
FINDLAY        CLEAR     69  61  75 NE13      29.89S
TOLEDO EXPRESS PTCLDY    65  61  87 N6        29.91S
TOLEDO METCALF PTCLDY    69  64  84 NE8       29.91F
LIMA           MOCLDY    68  68 100 NE8       29.89F

$$
AND FOR LAKE MICHIGAN COASTAL AND OPEN LAKE BUOY OBSERVATIONS

STATION/POSITION TEMP    WIND        PRES    VSBY  WAVE
                 AIR SEA DIR/SP/G                  HT/PER
                 (F)     (DEG/KT/KT) (MB)    (MI)  (FT/S)
CALUMET HARBOR    73     350/  7/  8 1013.0R
MICHIGAN CITY     73      40/ 12/ 13   N/A
BURNS HARBOR      74      50/ 15/ 17 1013.2S
SAINT JOSEPH      70      40/  3/  5 1014.2
SOUTH LAKE BUOY   71 71   30/ 14/ 16 1014.0          4/ 6
4 MI NW BRIDGMAN  71 71   80/ 10/ 14 1013.0R         3/ 6
MICHIGAN CITY     73 74   60/ 12/ 17   N/A           4/ 6

$$
&&




USA.gov is the U.S. government's official web portal to all federal, state and local government web resources and services.